This is the latest recevied weather packets stored in our database for station/object K7YVO. If no packets are shown the sender has not sent any weather packets the latest 10 day(s).
| Time | Temp. | Humidity | Pressure | Rain* | Wind** | Luminosity | Snow |
|---|---|---|---|---|---|---|---|
| 1777423613 | 13.89° C | 56% | 1024.4 hPa | 0 mm | - | 116 W/m² | - |
| 1777423308 | 13.33° C | 57% | 1024.4 hPa | 0 mm | - | 137 W/m² | - |
| 1777423004 | 13.89° C | 58% | 1024.5 hPa | 0 mm | - | 121 W/m² | - |
| 1777422699 | 13.89° C | 57% | 1024.4 hPa | 0 mm | - | 186 W/m² | - |
| 1777422395 | 13.89° C | 58% | 1024.6 hPa | 0 mm | - | 172 W/m² | - |
| 1777422090 | 15° C | 57% | 1024.5 hPa | 0 mm | - | 116 W/m² | - |
| 1777421789 | 13.89° C | 59% | 1024.6 hPa | 0 mm | - | 375 W/m² | - |
| 1777421485 | 14.44° C | 58% | 1024.5 hPa | 0 mm | - | 234 W/m² | - |
| 1777421181 | 14.44° C | 58% | 1024.5 hPa | 0 mm | - | 162 W/m² | - |
| 1777420878 | 14.44° C | 59% | 1024.5 hPa | 0 mm | - | 231 W/m² | - |
| 1777420574 | 14.44° C | 58% | 1024.5 hPa | 0 mm | - | 152 W/m² | - |
| 1777420270 | 13.33° C | 60% | 1024.7 hPa | 0 mm | - | 538 W/m² | - |
| 1777419965 | 13.33° C | 61% | 1024.6 hPa | 0 mm | - | 149 W/m² | - |
| 1777419663 | 13.33° C | 61% | 1024.6 hPa | 0 mm | - | 173 W/m² | - |
| 1777419361 | 13.33° C | 61% | 1024.7 hPa | 0 mm | - | 214 W/m² | - |
| 1777419060 | 13.89° C | 60% | 1024.6 hPa | 0 mm | - | 263 W/m² | - |
| 1777418759 | 13.33° C | 60% | 1024.6 hPa | 0 mm | - | 238 W/m² | - |
| 1777418456 | 13.89° C | 61% | 1024.7 hPa | 0 mm | - | 286 W/m² | - |
| 1777418152 | 13.89° C | 59% | 1024.8 hPa | 0 mm | - | 208 W/m² | - |
| 1777417849 | 13.89° C | 60% | 1024.7 hPa | 0 mm | - | 215 W/m² | - |
| 1777417544 | 13.89° C | 61% | 1024.7 hPa | 0 mm | - | 252 W/m² | - |
| 1777417241 | 13.89° C | 58% | 1024.6 hPa | 0 mm | - | 477 W/m² | - |
| 1777416937 | 13.89° C | 57% | 1024.7 hPa | 0 mm | - | 257 W/m² | - |
| 1777416632 | 13.89° C | 55% | 1024.8 hPa | 0 mm | - | 364 W/m² | - |
| 1777416328 | 13.89° C | 59% | 1024.7 hPa | 0 mm | - | 359 W/m² | - |
* Rain latest hour (hover to see other rain measurements)
** Current wind speed in m/s (hover to see current wind gust speed)